SWA807 KFLL-KMCO

Flight info

Callsign SWA807
Flight time 0h 37m
Altitude 22000
Route FRSBE2 WAPOM MUNGI1
Aircraft B38M/M-SADE2E3GHIJ4J7P2RWZ/LB1D1

Departure

Time 2026-05-07 02:18
Airport Fort Lauderdale Hollywood International Airport (KFLL)

Arrival

Time 2026-05-07 02:56
Airport Orlando International Airport (KMCO)
Time Latitude Longitude Altitude Speed Heading
2026-05-07 02:03 26.07418 -80.13870 18 ft 0 kts 179°
2026-05-07 02:07 26.07444 -80.13867 20 ft 4 kts 201°
2026-05-07 02:07 26.07464 -80.13851 19 ft 4 kts 243°
2026-05-07 02:08 26.07469 -80.13826 21 ft 1 kts 271°
2026-05-07 02:08 26.07469 -80.13825 21 ft 0 kts 271°
2026-05-07 02:10 26.07469 -80.13833 21 ft 2 kts 271°
2026-05-07 02:11 26.07469 -80.13855 20 ft 1 kts 271°
2026-05-07 02:11 26.07469 -80.13857 20 ft 1 kts 271°
2026-05-07 02:11 26.07470 -80.13864 19 ft 0 kts 271°
2026-05-07 02:11 26.07471 -80.13869 19 ft 2 kts 282°
2026-05-07 02:12 26.07479 -80.13904 20 ft 7 kts 280°
2026-05-07 02:12 26.07484 -80.13979 18 ft 13 kts 273°
2026-05-07 02:12 26.07485 -80.14106 19 ft 20 kts 269°
2026-05-07 02:12 26.07486 -80.14286 19 ft 26 kts 270°
2026-05-07 02:13 26.07487 -80.14500 19 ft 29 kts 270°
2026-05-07 02:13 26.07488 -80.14736 18 ft 31 kts 270°
2026-05-07 02:13 26.07488 -80.14965 18 ft 31 kts 270°
2026-05-07 02:13 26.07489 -80.15216 18 ft 34 kts 270°
2026-05-07 02:14 26.07495 -80.15473 18 ft 34 kts 271°
2026-05-07 02:14 26.07494 -80.15740 18 ft 33 kts 269°
2026-05-07 02:14 26.07495 -80.15947 18 ft 26 kts 269°
2026-05-07 02:14 26.07494 -80.16159 18 ft 29 kts 270°
2026-05-07 02:15 26.07496 -80.16356 18 ft 20 kts 270°
2026-05-07 02:15 26.07498 -80.16503 18 ft 19 kts 270°
2026-05-07 02:15 26.07502 -80.16610 18 ft 9 kts 285°
2026-05-07 02:15 26.07511 -80.16630 19 ft 0 kts 308°
2026-05-07 02:16 26.07512 -80.16630 19 ft 1 kts 310°
2026-05-07 02:16 26.07527 -80.16640 18 ft 4 kts 342°
2026-05-07 02:17 26.07568 -80.16643 19 ft 8 kts 359°
2026-05-07 02:17 26.07633 -80.16643 20 ft 11 kts
2026-05-07 02:17 26.07693 -80.16589 20 ft 14 kts 84°
2026-05-07 02:17 26.07694 -80.16544 21 ft 0 kts 90°
2026-05-07 02:18 26.07693 -80.16375 26 ft 68 kts 90°
2026-05-07 02:18 26.07688 -80.15476 35 ft 159 kts 90°
2026-05-07 02:18 26.07699 -80.14123 735 ft 188 kts 88°
2026-05-07 02:19 26.07746 -80.12598 1526 ft 209 kts 90°
2026-05-07 02:19 26.07790 -80.10902 1849 ft 227 kts 89°
2026-05-07 02:19 26.08148 -80.09179 1915 ft 233 kts 69°
2026-05-07 02:19 26.09024 -80.07653 1953 ft 237 kts 44°
2026-05-07 02:20 26.10469 -80.06692 2063 ft 252 kts 23°
2026-05-07 02:20 26.12125 -80.05972 2165 ft 259 kts 22°
2026-05-07 02:20 26.13824 -80.05253 2287 ft 263 kts 22°
2026-05-07 02:20 26.15620 -80.04912 2393 ft 265 kts 356°
2026-05-07 02:21 26.17410 -80.05412 2543 ft 267 kts 342°
2026-05-07 02:21 26.19173 -80.06065 2691 ft 267 kts 342°
2026-05-07 02:21 26.20928 -80.06754 2826 ft 268 kts 336°
2026-05-07 02:21 26.22374 -80.08021 2919 ft 268 kts 307°
2026-05-07 02:22 26.23235 -80.09855 2988 ft 268 kts 292°
2026-05-07 02:22 26.23948 -80.11777 3000 ft 268 kts 292°
2026-05-07 02:22 26.24654 -80.13708 3541 ft 265 kts 292°
2026-05-07 02:22 26.25334 -80.15577 5077 ft 260 kts 294°
2026-05-07 02:23 26.26237 -80.17354 6264 ft 269 kts 304°
2026-05-07 02:23 26.27275 -80.19136 7288 ft 280 kts 304°
2026-05-07 02:23 26.28340 -80.20982 8391 ft 286 kts 304°
2026-05-07 02:23 26.29427 -80.22881 9472 ft 295 kts 304°
2026-05-07 02:24 26.30543 -80.24840 10450 ft 305 kts 304°
2026-05-07 02:24 26.31711 -80.26895 11154 ft 322 kts 304°
2026-05-07 02:24 26.32929 -80.29040 11935 ft 333 kts 304°
2026-05-07 02:24 26.34169 -80.31226 12997 ft 334 kts 304°
2026-05-07 02:25 26.35421 -80.33435 13976 ft 339 kts 305°
2026-05-07 02:25 26.36685 -80.35668 14837 ft 342 kts 304°
2026-05-07 02:25 26.37955 -80.37912 15715 ft 344 kts 304°
2026-05-07 02:25 26.39237 -80.40178 16556 ft 347 kts 303°
2026-05-07 02:26 26.40527 -80.42457 17401 ft 349 kts 303°
2026-05-07 02:26 26.41831 -80.44763 18219 ft 352 kts 302°
2026-05-07 02:26 26.43142 -80.47080 18910 ft 355 kts 302°
2026-05-07 02:26 26.44462 -80.49416 19601 ft 357 kts 302°
2026-05-07 02:27 26.45790 -80.51768 20288 ft 359 kts 302°
2026-05-07 02:27 26.47159 -80.54101 20950 ft 361 kts 308°
2026-05-07 02:27 26.49003 -80.56018 21480 ft 367 kts 325°
2026-05-07 02:27 26.51305 -80.57237 21659 ft 368 kts 340°
2026-05-07 02:28 26.52927 -80.57785 21778 ft 368 kts 340°
2026-05-07 02:28 26.55386 -80.58615 21921 ft 370 kts 341°
2026-05-07 02:28 26.57907 -80.59446 21952 ft 386 kts 341°
2026-05-07 02:28 26.60512 -80.60287 21954 ft 393 kts 341°
2026-05-07 02:29 26.63153 -80.61132 21965 ft 396 kts 341°
2026-05-07 02:29 26.65809 -80.61978 21984 ft 397 kts 342°
2026-05-07 02:29 26.68471 -80.62825 21994 ft 397 kts 341°
2026-05-07 02:29 26.71130 -80.63671 22053 ft 398 kts 341°
2026-05-07 02:30 26.73790 -80.64518 22078 ft 397 kts 341°
2026-05-07 02:30 26.76447 -80.65364 22080 ft 397 kts 341°
2026-05-07 02:30 26.79107 -80.66212 22076 ft 397 kts 341°
2026-05-07 02:30 26.81757 -80.67056 22078 ft 397 kts 341°
2026-05-07 02:31 26.84419 -80.67905 22080 ft 397 kts 341°
2026-05-07 02:31 26.87075 -80.68753 22082 ft 397 kts 341°
2026-05-07 02:31 26.89731 -80.69601 22075 ft 397 kts 341°
2026-05-07 02:31 26.92353 -80.70547 22080 ft 396 kts 338°
2026-05-07 02:32 26.94963 -80.71547 22077 ft 396 kts 339°
2026-05-07 02:32 26.97575 -80.72536 22077 ft 396 kts 339°
2026-05-07 02:32 27.00184 -80.73520 22076 ft 396 kts 339°
2026-05-07 02:32 27.02792 -80.74502 22079 ft 396 kts 339°
2026-05-07 02:33 27.05405 -80.75487 22074 ft 396 kts 339°
2026-05-07 02:33 27.08016 -80.76471 22079 ft 396 kts 339°
2026-05-07 02:33 27.10627 -80.77456 22075 ft 396 kts 339°
2026-05-07 02:33 27.13232 -80.78438 22077 ft 396 kts 339°
2026-05-07 02:34 27.15843 -80.79424 22071 ft 396 kts 338°
2026-05-07 02:34 27.18450 -80.80408 22074 ft 396 kts 338°
2026-05-07 02:34 27.21065 -80.81396 22073 ft 396 kts 338°
2026-05-07 02:34 27.23676 -80.82383 22073 ft 396 kts 338°
2026-05-07 02:35 27.26283 -80.83369 22073 ft 396 kts 338°
2026-05-07 02:35 27.28893 -80.84356 22073 ft 396 kts 338°
2026-05-07 02:35 27.31503 -80.85340 22072 ft 396 kts 339°
2026-05-07 02:35 27.34172 -80.86134 22076 ft 397 kts 342°
2026-05-07 02:36 27.36852 -80.86912 22074 ft 397 kts 342°
2026-05-07 02:36 27.39521 -80.87700 22072 ft 397 kts 342°
2026-05-07 02:36 27.42190 -80.88495 22074 ft 397 kts 342°
2026-05-07 02:36 27.44863 -80.89293 22073 ft 397 kts 342°
2026-05-07 02:37 27.47528 -80.90090 22072 ft 397 kts 342°
2026-05-07 02:37 27.50199 -80.90889 22071 ft 397 kts 342°
2026-05-07 02:37 27.52868 -80.91688 22070 ft 397 kts 342°
2026-05-07 02:37 27.55537 -80.92488 22072 ft 397 kts 341°
2026-05-07 02:38 27.58206 -80.93288 22071 ft 397 kts 341°
2026-05-07 02:38 27.60820 -80.94071 22070 ft 380 kts 341°
2026-05-07 02:38 27.63335 -80.94826 21878 ft 369 kts 341°
2026-05-07 02:38 27.65808 -80.95568 21425 ft 367 kts 341°
2026-05-07 02:39 27.68271 -80.96308 20945 ft 366 kts 341°
2026-05-07 02:39 27.70728 -80.97046 20493 ft 364 kts 342°
2026-05-07 02:39 27.73174 -80.97781 20030 ft 364 kts 342°
2026-05-07 02:39 27.75616 -80.98515 19568 ft 363 kts 342°
2026-05-07 02:40 27.78053 -80.99249 19131 ft 362 kts 342°
2026-05-07 02:40 27.80483 -80.99980 18683 ft 361 kts 342°
2026-05-07 02:40 27.82912 -81.00712 18227 ft 361 kts 342°
2026-05-07 02:40 27.85333 -81.01441 17742 ft 360 kts 343°
2026-05-07 02:41 27.87711 -81.02158 17293 ft 357 kts 343°
2026-05-07 02:41 27.90106 -81.02880 16861 ft 355 kts 343°
2026-05-07 02:41 27.92487 -81.03598 16450 ft 353 kts 343°
2026-05-07 02:41 27.94794 -81.04488 15984 ft 350 kts 338°
2026-05-07 02:42 27.97065 -81.05465 15579 ft 348 kts 338°
2026-05-07 02:42 27.99324 -81.06421 15182 ft 345 kts 339°
2026-05-07 02:42 28.01572 -81.07361 14779 ft 343 kts 339°
2026-05-07 02:42 28.03804 -81.08291 14373 ft 341 kts 339°
2026-05-07 02:43 28.06030 -81.09217 13969 ft 340 kts 340°
2026-05-07 02:43 28.08235 -81.10146 13529 ft 338 kts 339°
2026-05-07 02:43 28.10428 -81.11115 13050 ft 337 kts 338°
2026-05-07 02:43 28.12606 -81.12075 12661 ft 334 kts 339°
2026-05-07 02:44 28.14762 -81.13024 12279 ft 331 kts 339°
2026-05-07 02:44 28.16896 -81.13963 11895 ft 328 kts 339°
2026-05-07 02:44 28.19007 -81.14892 11684 ft 320 kts 338°
2026-05-07 02:44 28.21027 -81.15781 11514 ft 302 kts 338°
2026-05-07 02:45 28.22921 -81.16615 11387 ft 283 kts 338°
2026-05-07 02:45 28.24714 -81.17405 11245 ft 273 kts 338°
2026-05-07 02:45 28.26531 -81.18198 11080 ft 288 kts 341°
2026-05-07 02:45 28.28514 -81.18540 10701 ft 291 kts 359°
2026-05-07 02:46 28.30536 -81.18573 10397 ft 289 kts 358°
2026-05-07 02:46 28.32545 -81.18618 10073 ft 289 kts 359°
2026-05-07 02:46 28.34530 -81.18658 9714 ft 289 kts 359°
2026-05-07 02:46 28.36544 -81.18698 9335 ft 290 kts 359°
2026-05-07 02:47 28.38558 -81.18737 8976 ft 290 kts 359°
2026-05-07 02:47 28.40571 -81.18757 8574 ft 290 kts 359°
2026-05-07 02:47 28.42584 -81.18774 8208 ft 284 kts 360°
2026-05-07 02:47 28.44524 -81.18790 7880 ft 274 kts 360°
2026-05-07 02:48 28.46402 -81.18806 7553 ft 265 kts 360°
2026-05-07 02:48 28.48221 -81.18822 7239 ft 257 kts 360°
2026-05-07 02:48 28.49982 -81.18837 6938 ft 250 kts
2026-05-07 02:48 28.51709 -81.18852 6641 ft 248 kts
2026-05-07 02:49 28.53411 -81.18867 6327 ft 242 kts 360°
2026-05-07 02:49 28.55064 -81.18890 6081 ft 233 kts 359°
2026-05-07 02:49 28.56695 -81.18922 5920 ft 235 kts 358°
2026-05-07 02:49 28.58331 -81.18954 5811 ft 236 kts 358°
2026-05-07 02:50 28.59975 -81.18989 5697 ft 234 kts 356°
2026-05-07 02:50 28.61483 -81.19489 5379 ft 223 kts 321°
2026-05-07 02:50 28.62361 -81.20840 5117 ft 209 kts 289°
2026-05-07 02:50 28.62631 -81.22426 4838 ft 202 kts 268°
2026-05-07 02:51 28.62361 -81.23955 4524 ft 196 kts 245°
2026-05-07 02:51 28.61572 -81.25187 4218 ft 192 kts 221°
2026-05-07 02:51 28.60459 -81.25996 3942 ft 188 kts 210°
2026-05-07 02:51 28.59325 -81.26723 3573 ft 188 kts 211°
2026-05-07 02:52 28.58203 -81.27464 3250 ft 183 kts 211°
2026-05-07 02:52 28.57118 -81.28131 2916 ft 172 kts 201°
2026-05-07 02:52 28.56000 -81.28386 2653 ft 157 kts 184°
2026-05-07 02:52 28.54932 -81.28385 2399 ft 150 kts 179°
2026-05-07 02:53 28.53907 -81.28359 2091 ft 145 kts 179°
2026-05-07 02:53 28.52914 -81.28361 1743 ft 140 kts 179°
2026-05-07 02:53 28.51947 -81.28353 1521 ft 139 kts 178°
2026-05-07 02:53 28.50985 -81.28332 1368 ft 137 kts 177°
2026-05-07 02:54 28.50023 -81.28324 1217 ft 138 kts 178°
2026-05-07 02:54 28.49064 -81.28326 1009 ft 138 kts 176°
2026-05-07 02:54 28.48106 -81.28296 833 ft 137 kts 175°
2026-05-07 02:54 28.47148 -81.28285 661 ft 140 kts 177°
2026-05-07 02:55 28.46179 -81.28277 506 ft 139 kts 176°
2026-05-07 02:55 28.45209 -81.28266 302 ft 139 kts 176°
2026-05-07 02:55 28.44255 -81.28257 120 ft 135 kts 176°
2026-05-07 02:55 28.43411 -81.28245 100 ft 101 kts 178°
2026-05-07 02:56 28.42947 -81.28242 101 ft 41 kts 180°
2026-05-07 02:56 28.42669 -81.28246 102 ft 39 kts 189°
2026-05-07 02:56 28.42515 -81.28380 100 ft 28 kts 250°
2026-05-07 02:56 28.42446 -81.28598 100 ft 30 kts 250°
2026-05-07 02:57 28.42376 -81.28819 106 ft 29 kts 250°
2026-05-07 02:57 28.42316 -81.29013 101 ft 21 kts 251°
2026-05-07 02:57 28.42283 -81.29200 97 ft 26 kts 268°
2026-05-07 02:57 28.42283 -81.29403 97 ft 20 kts 270°
2026-05-07 02:58 28.42283 -81.29552 97 ft 20 kts 270°
2026-05-07 02:58 28.42308 -81.29694 98 ft 18 kts 334°
2026-05-07 02:58 28.42440 -81.29701 99 ft 21 kts 360°
2026-05-07 02:58 28.42597 -81.29701 98 ft 24 kts 358°
2026-05-07 02:59 28.42781 -81.29704 99 ft 28 kts 359°
2026-05-07 02:59 28.42992 -81.29708 99 ft 32 kts
2026-05-07 02:59 28.43230 -81.29709 100 ft 36 kts 359°
2026-05-07 02:59 28.43491 -81.29714 98 ft 30 kts 359°
2026-05-07 03:00 28.43551 -81.29816 100 ft 18 kts 266°
2026-05-07 03:00 28.43642 -81.29891 98 ft 22 kts 359°
2026-05-07 03:00 28.43800 -81.29969 98 ft 29 kts 303°
2026-05-07 03:00 28.43768 -81.30191 97 ft 32 kts 233°
2026-05-07 03:01 28.43642 -81.30376 98 ft 23 kts 231°
2026-05-07 03:01 28.43555 -81.30458 98 ft 13 kts 198°
2026-05-07 03:01 28.43489 -81.30453 100 ft 5 kts 131°
2026-05-07 03:01 28.43498 -81.30413 98 ft 7 kts 67°
2026-05-07 03:02 28.43510 -81.30372 97 ft 2 kts 73°
2026-05-07 03:02 28.43510 -81.30371 97 ft 0 kts 73°